SCP
8 9 10 9 8 7 7 7 6 5 4 3 3 3 4 4 4 4 4 3 2 1 2 2 2 1 1 1 1 1 1 1 1 1 1 1 2 2
8 9 9 9 8 7 7 6 6 5 3 3 3 4 4 4 4 5 5 4 2 2 2 2 2 1 1 1 1 1 1 1 1 1 1 1 2 2
8 9 9 8 7 7 6 6 5 4 3 3 3 4 4 4 4 5 6 5 3 2 1 1 1 1 1 1 1 1 1 1 1 1 1 1 2 2
9 9 8 7 6 6 5 5 4 4 4 3 3 4 4 4 4 5 5 5 4 3 1 1 1 1 1 1 1 1 0 0 1 1 1 1 2 2
8 7 7 6 5 5 5 5 4 4 4 3 3 4 4 4 3 4 5 6 5 3 2 1 1 0 0 0 0 0 0 0 0 1 1 1 1 1
6 5 5 5 5 5 5 5 5 5 4 4 3 3 4 4 3 4 5 6 5 3 2 2 1 1 0 0 0 0 0 0 0 0 0 0 0 0
4 4 4 4 4 4 4 5 5 4 4 4 3 3 3 3 4 4 4 4 3 3 3 3 2 1 1 1 0 0 0 0 0 0 0 0 0 0
3 3 3 3 3 3 3 3 3 3 3 3 3 3 3 3 3 3 2 2 1 2 4 4 3 2 1 1 0 0 0 0 0 0 0 0 0 0
2 2 2 2 2 2 2 2 2 2 2 2 2 2 3 3 3 2 2 1 1 2 2 2 2 2 1 1 1 0 0 0 0 0 0 0 0 0
1 1 1 1 1 1 2 2 1 1 1 1 2 2 2 2 2 2 1 1 1 1 1 1 2 1 1 1 1 0 0 0 0 0 0 0 0 0
1 1 1 1 1 2 2 2 2 2 1 1 1 1 1 1 1 1 1 1 1 1 1 1 1 2 1 1 1 1 0 0 0 0 0 0 0 0
1 1 1 1 1 2 2 3 3 2 2 1 1 1 1 1 1 1 1 1 1 1 1 1 1 1 1 1 1 1 1 1 0 0 0 0 0 0
1 1 1 1 1 1 2 3 3 2 2 1 1 1 1 1 1 1 1 1 1 1 1 1 1 1 1 1 1 2 2 2 1 1 0 0 0 0
2 2 2 1 1 1 1 2 2 1 1 2 2 1 1 2 2 1 1 1 1 1 0 1 1 1 1 1 1 1 2 2 2 1 1 1 0 0
2 2 1 1 0 0 0 1 1 1 1 1 1 1 1 1 1 1 1 1 1 1 0 0 1 1 0 0 0 1 1 1 2 2 2 1 1 1
2 2 1 1 0 0 0 0 0 1 1 1 1 1 0 0 0 0 0 0 1 0 0 0 1 1 1 0 0 0 0 1 1 1 1 1 1 1
2 2 1 1 1 1 1 1 1 1 1 1 1 0 0 0 0 0 0 0 0 0 0 0 1 1 1 1 0 0 0 1 1 1 1 1 1 1
3 3 2 2 2 1 1 1 1 1 1 1 1 1 1 1 0 0 0 0 0 0 0 0 0 0 0 0 0 0 0 0 1 1 1 1 0 0
4 4 3 2 2 2 2 2 2 2 2 1 1 1 1 1 1 1 0 0 0 0 0 0 0 0 0 0 0 0 0 0 0 1 1 1 1 1
6 5 4 3 2 2 2 3 3 3 2 1 1 1 1 1 1 1 0 0 0 0 0 0 0 0 0 0 0 0 0 0 0 0 1 1 1 1
6 5 4 3 3 2 3 3 3 3 2 1 1 1 1 1 1 0 0 0 0 0 0 0 0 0 0 0 0 0 0 0 0 0 0 0 1 1
4 3 3 3 2 2 2 2 3 3 2 2 1 1 1 1 1 0 0 0 0 0 0 0 0 0 0 0 0 0 0 0 0 0 0 0 0 0
2 2 2 2 2 2 2 2 2 3 2 2 1 1 1 1 1 1 0 0 0 0 0 0 0 0 0 0 0 0 0 0 0 0 0 0 0 0
Wind_Speed
2 2 2 2 2 2 2 1 1 2 2 2 1 1 1 1 3 3 4 5 5 5 5 5 5 4 4 4 4 5 5 5 5 5 6 6 7 8
1 2 2 2 3 2 2 2 1 2 3 2 1 1 1 0 2 2 3 5 6 6 6 5 5 5 4 4 4 5 5 5 5 6 6 7 7 7
2 2 2 3 3 3 2 2 2 1 2 2 2 1 0 0 1 2 3 3 3 6 6 5 5 4 3 3 3 3 4 5 5 6 6 6 7 7
2 2 3 2 3 3 3 3 2 2 2 3 3 2 1 1 2 2 2 2 3 5 5 5 5 4 3 3 3 3 3 4 5 5 5 5 6 7
2 2 2 2 3 2 3 3 2 2 2 2 3 2 1 1 2 2 1 1 2 4 5 5 5 5 4 3 3 3 3 3 3 4 4 4 5 6
1 2 2 2 3 3 3 3 3 3 3 2 3 2 1 1 1 2 1 1 2 1 2 3 5 5 4 3 3 2 2 2 3 3 3 4 4 5
2 2 1 2 2 2 3 3 3 2 2 2 2 2 1 1 1 2 2 2 2 1 1 1 2 2 3 3 3 2 2 2 2 3 3 4 4 4
2 2 2 1 1 1 3 4 3 3 3 2 2 2 2 2 2 2 1 1 1 0 0 1 1 1 2 2 3 4 4 3 3 3 3 3 3 4
3 3 3 3 2 2 3 3 4 4 3 3 2 2 2 2 2 3 2 2 2 1 1 2 1 1 1 2 6 6 5 4 3 3 3 3 3 4
2 2 2 2 3 3 3 2 2 2 3 2 2 3 2 2 2 3 3 2 1 1 1 1 0 1 0 1 5 6 5 5 4 4 4 4 3 4
2 2 1 1 2 3 2 2 3 2 2 2 2 2 3 3 3 2 2 1 1 1 0 0 1 1 1 1 3 5 6 5 5 5 5 4 4 3
2 1 0 2 2 2 2 2 3 3 3 3 2 3 3 3 3 2 2 2 1 1 0 0 1 0 1 1 1 3 3 5 6 6 6 5 5 3
2 1 0 0 1 2 2 2 3 3 3 3 2 2 1 1 1 1 2 2 2 1 1 0 1 1 1 1 1 2 3 2 3 4 6 7 7 5
2 1 0 3 3 4 3 3 4 3 2 2 1 1 0 0 1 1 1 2 2 2 1 1 1 1 1 1 2 1 2 2 3 3 3 5 6 7
2 2 2 4 4 3 4 4 3 2 2 2 1 1 1 0 0 1 1 1 1 1 2 2 2 1 1 1 2 2 2 2 3 3 3 4 4 3
2 2 3 4 4 3 2 2 2 2 2 2 1 1 1 0 0 0 1 1 1 1 1 1 1 2 2 2 2 2 2 2 2 2 2 3 3 4
2 3 3 2 2 2 2 2 2 2 2 1 1 0 0 1 1 0 1 1 1 1 1 1 1 1 2 2 2 2 1 1 1 1 2 2 3 4
2 3 3 2 2 2 2 2 2 1 1 1 1 0 0 1 1 1 1 1 2 1 1 1 1 1 2 2 2 2 1 1 1 1 2 2 3 3
3 4 3 3 3 3 2 1 1 1 1 1 1 0 1 1 1 1 1 1 1 2 2 1 1 1 2 2 2 2 2 2 1 2 3 3 3 3
4 3 3 3 2 2 2 1 1 1 1 1 1 0 1 1 1 2 2 2 2 2 2 1 1 1 2 3 2 3 4 3 2 2 2 2 1 1
3 3 2 2 2 1 1 1 1 1 1 1 1 1 1 1 2 2 2 3 3 2 2 2 2 3 2 2 2 2 2 4 3 2 2 2 2 2
2 2 1 1 1 1 1 1 1 1 1 1 2 2 2 2 2 2 2 2 2 2 2 2 2 2 2 3 3 3 3 2 2 3 3 4 3 3
2 2 2 1 1 1 1 1 1 1 1 2 2 2 2 2 2 2 2 3 3 3 2 3 2 2 2 3 3 3 3 3 2 2 3 4 5 5
Wind_Direction
315 314 307 303 299 288 288 270 268 292 292 275 279 257 192 149 166 164 160 174 182 192 197 200 200 205 216 226 227 218 215 214 212 214 214 215 214 215
288 318 318 318 317 307 293 287 271 257 270 280 290 272 244 219 162 165 172 178 193 198 201 204 205 206 212 221 227 219 214 212 211 214 213 212 212 214
313 324 320 317 315 314 317 308 293 289 279 285 280 283 272 285 215 210 186 188 188 193 196 200 200 196 197 206 214 215 213 216 217 216 214 212 210 207
325 326 318 319 325 319 319 311 305 300 281 282 280 287 261 218 222 225 211 203 189 190 189 187 187 188 188 196 203 212 214 216 215 213 212 213 211 207
321 317 317 328 317 317 305 303 299 299 289 278 283 284 289 273 262 258 225 222 216 179 188 190 191 192 195 200 207 212 211 207 199 199 204 209 210 208
335 328 322 316 317 314 309 314 312 309 292 286 279 275 280 273 265 274 267 248 252 206 204 185 190 195 196 192 202 207 202 197 194 195 196 199 206 209
317 319 317 331 339 325 328 325 320 317 313 304 293 298 307 298 288 286 283 278 266 216 186 201 179 192 195 197 190 179 175 177 184 190 192 188 186 188
309 305 283 291 320 334 330 321 311 297 302 300 299 308 316 315 300 291 284 275 277 288 232 256 190 183 169 170 178 171 174 177 176 174 175 178 177 179
301 305 305 312 354 346 316 298 306 301 271 268 291 299 296 296 292 285 282 259 261 256 246 256 197 190 189 176 173 173 176 184 193 194 189 184 183 183
294 298 302 338 342 341 317 317 307 307 278 259 259 276 292 292 279 268 266 270 262 252 179 241 272 275 225 164 177 177 186 195 201 203 205 203 202 206
264 280 298 2 356 1 336 317 309 304 324 326 298 284 283 280 281 291 288 264 266 268 15 222 254 292 234 186 181 186 193 199 209 215 215 215 212 210
258 262 321 28 23 1 321 305 305 312 319 308 297 274 256 253 249 235 245 257 261 259 327 350 250 256 278 230 175 191 207 214 216 219 219 222 212 207
272 263 194 89 292 288 278 272 283 292 292 286 279 263 256 249 238 229 239 235 242 263 228 208 263 277 239 262 253 208 206 206 206 216 220 218 210 202
295 305 194 200 236 256 256 271 288 299 281 283 298 317 345 8 355 347 289 249 235 217 219 231 249 233 241 276 276 245 230 213 201 204 200 201 208 213
300 314 280 236 245 239 239 258 276 282 286 294 304 343 18 352 325 355 332 289 228 240 213 212 237 250 235 238 262 254 249 233 206 197 196 192 195 196
271 286 257 237 251 260 236 234 231 249 265 282 305 342 16 340 297 322 300 288 257 243 230 221 230 240 255 262 243 254 243 227 216 206 191 191 198 202
269 254 241 222 226 230 225 223 228 226 244 268 273 315 334 312 293 301 301 298 273 260 250 233 224 245 246 247 258 260 247 246 221 191 188 213 211 208
226 247 241 234 241 244 239 227 219 216 231 249 232 218 251 274 286 278 258 263 278 283 275 259 254 276 282 281 255 255 266 272 272 235 223 223 231 218
218 239 240 239 242 245 244 241 222 198 195 227 227 237 266 276 283 278 270 272 277 281 277 257 235 250 274 286 280 251 253 260 258 250 242 235 234 221
233 242 246 243 242 241 242 238 212 179 176 215 229 257 271 275 279 277 276 281 275 266 266 258 234 244 262 276 278 268 237 234 236 246 262 275 284 275
249 255 259 261 262 250 240 232 205 179 180 209 223 243 264 271 274 274 273 272 270 268 269 259 244 243 250 259 267 264 248 233 239 232 233 248 261 253
250 251 255 258 258 261 246 232 231 212 204 225 231 232 245 260 267 268 276 279 271 273 279 278 258 235 237 250 263 268 266 247 246 263 263 247 235 234
242 260 264 258 249 258 260 251 242 241 245 254 252 249 247 250 263 264 267 274 281 284 288 283 278 255 251 254 265 270 274 268 246 239 259 268 255 251